Terminal Aerodrome Forecast
Issued by NWS

Home | Current Version | Previous Version | Text Only | Print | Product List | Glossary On
Versions: 1 2 3 4 5 6 7 8 9 10 11 12 13 14 15 16 17 18 19 20 21 22 23 24 25 26 27 28 29 30 31 32 33 34 35 36 37 38 39 40 41 42
000
FTUS45 KBOU 082338
TAFBJC
TAF
KBJC 082338Z 0900/0924 14006KT P6SM FEW070 BKN220
     FM090400 32010KT P6SM FEW120 SCT220
     FM090800 24007KT P6SM FEW220
     FM091600 VRB06KT P6SM SCT220
     FM092000 02010KT P6SM FEW120 SCT220=

USA.gov is the U.S. government's official web portal to all federal, state and local government web resources and services.